Regional Weather Roundup
Issued by NWS Upton, NY

Current Version | Previous Version | Graphics & Text | Print | Product List | Glossary Off
Versions: 1 2 3 4 5 6 7 8 9 10 11 12 13 14 15 16 17 18 19 20 21 22 23 24 25 26 27 28 29 30 31 32 33 34 35 36 37 38 39 40 41 42 43 44 45 46 47 48 49 50

000
ASUS41 KOKX 292005
RWROKX

REGIONAL WEATHER ROUNDUP
NATIONAL WEATHER SERVICE NEW YORK NY
400 PM EDT TUE JUL 29 2014

NOTE: "FAIR" INDICATES FEW OR NO CLOUDS BELOW 12,000 FEET WITH NO
SIGNIFICANT WEATHER AND/OR OBSTRUCTIONS TO VISIBILITY.

NYZ071-072-176-178-NJZ106-104-292100-
NEW YORK CITY METRO AREA


CITY           SKY/WX    TMP DP  RH WIND       PRES   REMARKS
CENTRAL PARK   MOSUNNY   76  50  40 VRB5      29.91R
LAGUARDIA APRT PTSUNNY   75  49  39 N9        29.88R
KENNEDY INTL   PTSUNNY   76  47  35 W10G22    29.89R
NEWARK/LIBERTY PTSUNNY   76  47  35 W12       29.89R
BRNX BOT. GARD   N/A     73  50  43 NW3       29.91R
TETERBORO      PTSUNNY   77  50  38 NW9       29.88R
$$

NYZ177-179-078>081-292100-
LONG ISLAND NEW YORK

CITY           SKY/WX    TMP DP  RH WIND       PRES   REMARKS
FARMINGDALE    PTSUNNY   75  50  41 NW10G16   29.88R
ISLIP          PTSUNNY   78  50  37 NW6       29.87R
SHIRLEY        PTSUNNY   75  56  51 S12       29.89R
WESTHAMPTON    PTSUNNY   76  53  44 SW10      29.89R
MONTAUK POINT    N/A     76  53  44 W7        29.89R
$$

NYZ052-065-067-292100-
HUDSON VALLEY

CITY           SKY/WX    TMP DP  RH WIND       PRES   REMARKS
WHITE PLAINS   MOSUNNY   72  51  47 NW12      29.89R
NEWBURGH       PTSUNNY   73  52  46 W7        29.90R
MONTGOMERY     PTSUNNY   72  50  45 NW8       29.89R
POUGHKEEPSIE   CLOUDY    73  51  46 W6        29.87R
ALBANY         MOSUNNY   74  51  44 W8        29.87S
$$

NJZ001-105-106-008-010-013-015-019>022-104-292100-
NEW JERSEY

CITY           SKY/WX    TMP DP  RH WIND       PRES   REMARKS
NEWARK/LIBERTY PTSUNNY   76  47  35 W12       29.89R
TETERBORO      PTSUNNY   77  50  38 NW9       29.88R
CALDWELL       MOSUNNY   75  48  38 NW7       29.90R
MORRISTOWN     PTSUNNY   75  50  41 NW7       29.90R
SOMERVILLE     CLOUDY    75  49  39 NW7       29.89R
LINDEN         CLOUDY    76  49  38 NW12      29.91S
SUSSEX         CLOUDY    72  51  47 NW6       29.91R
ANDOVER          N/A     71  51  49 CALM      29.92R
TRENTON        CLOUDY    73  51  46 NW8       29.91R
MILLVILLE      CLOUDY    74  55  51 S3        29.91S
ATLANTIC CITY  CLOUDY    76  56  49 VRB3      29.91R
WRIGHTSTOWN    PTSUNNY   74  54  49 VRB5      29.89R
TOMS RIVER     CLOUDY    75  52  43 W6        29.91S
BELMAR         PTSUNNY   75  54  46 W10       29.91R
$$

PAZ047>061-062-071-292100-
EASTERN PENNSYLVANIA

CITY           SKY/WX    TMP DP  RH WIND       PRES   REMARKS
PHILADELPHIA   CLOUDY    75  53  46 VRB3      29.92R
ALLENTOWN      CLOUDY    73  50  44 N6        29.91R
SCRANTON       CLOUDY    70  48  45 NW9       29.94R
$$

CTZ002-004>006-009-010-012-RIZ004-006-007-MAZ004-011-015-292100-
SOUTHERN NEW ENGLAND
 IN CT

CITY           SKY/WX    TMP DP  RH WIND       PRES   REMARKS
BRADLEY INTL   CLOUDY    75  50  41 W10       29.86R
HARTFORD       CLOUDY    75  49  39 NW8       29.86R
DANBURY        PTSUNNY   72  51  47 VRB6      29.90R
WTRBRY/OXFORD  CLOUDY    70  54  56 W6        29.91R
BRIDGEPORT     PTSUNNY   77  55  46 SW15      29.87S
MERIDEN        PTSUNNY   75  51  43 CALM      29.87R
NEW HAVEN      PTSUNNY   76  58  53 SW8       29.88R
CHESTER        FAIR      73  55  53 SW8       29.88S
GROTON         PTSUNNY   71  60  68 SW13      29.86R
WILLIMANTIC    CLOUDY    74  54  49 NW5       29.87R

 IN RI

CITY           SKY/WX    TMP DP  RH WIND       PRES   REMARKS
PROVIDENCE     PTSUNNY   78  52  40 W8        29.85R
BLOCK ISLAND   SUNNY     75  57  53 SW12      29.88S
WESTERLY       CLOUDY    76  56  49 SW13G20   29.87R

 IN MA

CITY           SKY/WX    TMP DP  RH WIND       PRES   REMARKS
BOSTON         PTSUNNY   77  55  46 SW8       29.83R
WORCESTER      MOSUNNY   70  54  56 W9        29.88R
WESTFIELD      PTSUNNY   76  52  43 W14       29.87R
PROVINCETOWN   PTSUNNY   75  61  60 CALM      29.85S
NANTUCKET      SUNNY     71  62  73 SW12      29.88R
$$

ANZ330-335-338-340-345-350-353-355-292100-
COASTAL MARINE OBSERVATIONS


STATION/POSITION TIME  SKY/WX   TEMP    WIND        PRES    VSBY  WAVE
                                AIR SEA DIR/SP/G                  HT/PER
                 (UTC)          (F)     (DEG/KT/KT) (MB)    (MI)  (FT/S)
NY HARB ENTRANCE NOT AVBL
4S FIRE IS       NOT AVBL
23SW MTP         2000            72 70              1011.7          4/ 8
HUDSON CANYON    2000            70 75  310/  4/  6 1012.9          3/ 7
EXECUTION ROCKS  2000            74 71  290/ 12/ 17   N/A
WESTERN LI SOUND 2000            73     300/  4/  6   N/A           0
CENTRAL LI SOUND 1900            71 71  250/ 12/ 14   N/A           1/ 3
EASTERN LI SOUND 1900            70 67  240/ 12/ 16   N/A
ROBBINS REEF     2000            73     290/ 12/ 17   N/A
$$


>>>>>>>>>>>>>>>>>>>>>>>>>>>> KEY <<<<<<<<<<<<<<<<<<<<<<<<<<<
>                                                          <
>     SKY/WX - SKY CONDITION/PRESENT WEATHER               <
>     TMP    - TEMPERATURE IN FAHRENHEIT                   <
>     DP     - DEWPOINT IN FAHRENHEIT                      <
>     RH     - RELATIVE HUMIDITY IN PERCENT                <
>     WIND   - DIRECTION AND SPEED IN MPH                  <
>     PRES   - MEAN SEA LEVEL PRESSURE IN INCHES OF HG     <
>     WCI    - WIND CHILL INDEX                            <
>     VSB    - VISIBILITY IN MILES                         <
>     HX     - HEAT INDEX                                  <
>     TC     - TEMPERATURE IN CELSIUS                      <
>     VRB    - VARIABLE WIND DIRECTION                     <
>                                                          <
>>>>>>>>>>>>>>>>>>>>>>>>>>>> KEY <<<<<<<<<<<<<<<<<<<<<<<<<<<




USA.gov is the U.S. government's official web portal to all federal, state and local government web resources and services.